User: anonymous   Login
Location: Salamanca
(40.9670°N, 5.6500°W)
Time: 19:20:59
(UTC+01:00)
Language:

Cosmos 1633 Rocket - Orbit

View from above orbital plane
View from above orbital plane
View from above satellite
View from above satellite

Ground track
Ground track

The orbit data is extracted from the following two-line orbital elements,

1 15593U 85020B   15029.06134583  .00000478  00000-0  54661-4 0  8810
2 15593 082.5399 356.7332 0012417 040.7750 004.7622 14.83921727615319
Epoch (UTC): 29 January 2015 01:28:20
Eccentricity: 0.0012417
inclination: 82.5399°
perigee height: 608 km
apogee height: 625 km
right ascension of ascending node: 356.7332°
argument of perigee: 40.7750°
revolutions per day: 14.83921727
mean anomaly at epoch: 4.7622°
orbit number at epoch: 61531

The dashed part of the orbit path shows where the satellite is in the earth's shadow,  

DLR